[[{"header":{"parameterUnit":"m.s-1","parameterCategory":1,"la1":30.2991,"la2":30.254,"lo1":-89.0895,"lo2":-89.0444,"dy":0.0017,"dx":0.0017,"nx":28,"ny":28,"refTime":"2024-05-22T09:00:00:Z","depth":0,"parameterNumber":2,"parameterNumberName":"U-component_of_WINDS"},"data":[0,0,0,0,0,0,0,0,0,0,0,0,0,0,0,0,0,0,0,0,0,0,0,0,0,0,0,0,0,0,0,0,0,0,0,0,0,0,0,0,0,0,0,0,0,0,0,0,0,0,0,0,0,0,0,0,0,0,-2.7702,-2.7702,0,-2.7697,-2.7697,-2.7696,-2.7644,-2.7643,-2.7642,-2.764,-2.7636,-2.7637,-2.7638,0,0,0,0,0,0,0,0,0,0,0,0,0,-2.7668,-2.7669,-2.7702,-2.7702,-2.7701,-2.7697,-2.7697,-2.7696,-2.7644,-2.7643,-2.7641,-2.764,-2.7636,-2.7637,-2.7638,0,0,0,0,0,0,0,0,0,0,0,0,0,-2.7675,-2.767,-2.7702,-2.7675,-2.7672,-2.7697,-2.7697,-2.7696,-2.7645,-2.7643,-2.7641,-2.7639,-2.7635,-2.7637,-2.7638,-2.7688,0,0,-2.7643,-2.7644,0,0,0,0,0,0,0,0,-2.7675,-2.7676,-2.7679,-2.7677,-2.7674,-2.7669,-2.7683,-2.7694,-2.7645,-2.7655,-2.764,-2.7638,-2.7649,-2.7649,-2.7652,-2.7688,-2.7687,-2.7644,-2.7645,-2.7645,-2.7646,0,0,0,0,0,0,0,-2.7674,-2.7676,-2.77,-2.7679,-2.7676,-2.7664,-2.7663,-2.7685,-2.7663,-2.7654,-2.7651,-2.7651,-2.7647,-2.7651,-2.7652,-2.7687,-2.7644,-2.7645,-2.7646,-2.7647,-2.7764,-2.7766,0,0,0,0,0,0,-2.7677,-2.7676,-2.77,-2.7699,-2.767,-2.7666,-2.7665,-2.7673,-2.7663,-2.7659,-2.7652,-2.7648,-2.7649,-2.765,-2.7652,-2.7708,-2.7645,-2.7647,-2.7648,-2.7762,-2.7765,-2.7767,0,0,0,0,0,0,-2.7677,-2.768,-2.77,-2.7687,-2.7688,-2.7669,-2.7678,-2.7674,-2.7677,-2.7661,-2.7657,-2.766,-2.7648,-2.7649,-2.7679,-2.7707,-2.7648,-2.7649,-2.776,-2.7763,-2.7766,-2.7823,0,0,0,0,0,0,-2.7676,-2.768,-2.7698,-2.7688,-2.7689,-2.7727,-2.768,-2.7675,-2.768,-2.7675,-2.7667,-2.7664,-2.7646,-2.7677,-2.7681,-2.7709,-2.765,-2.7757,-2.7761,-2.7765,-2.7818,-2.7827,-2.7835,0,0,0,0,0,-2.7675,-2.7714,-2.7699,-2.7702,-2.7711,-2.7729,-2.773,-2.7708,-2.7683,-2.7701,-2.7691,-2.7665,-2.7705,-2.7681,-2.7685,-2.7713,-2.7755,-2.776,-2.7764,-2.7814,-2.7826,-2.7835,0,0,0,0,0,0,-2.7727,-2.7712,-2.7695,-2.7732,-2.7732,-2.772,-2.7742,-2.7721,-2.7728,-2.7722,-2.7696,-2.7694,-2.7729,-2.7724,-2.7698,-2.7761,-2.7725,-2.7731,-2.7762,-2.7772,-2.7781,-2.778,-2.7652,0,0,0,0,0,-2.7744,-2.7759,-2.7745,-2.7779,-2.778,-2.7761,-2.7768,-2.7751,-2.7751,-2.775,-2.7742,-2.7743,-2.7756,-2.7764,-2.7775,-2.7819,-2.7816,-2.7841,-2.7849,-2.7856,-2.7861,-2.7883,-2.7894,-2.7783,-2.7783,-2.7783,0,0,-2.7776,-2.777,-2.7781,-2.7789,-2.7787,-2.7804,-2.7761,-2.7781,-2.7793,-2.7753,-2.778,-2.7776,-2.7775,-2.7812,-2.7828,-2.7809,-2.7892,-2.7862,-2.7868,-2.7869,-2.7889,-2.79,-2.7909,-2.7786,-2.7785,-2.7785,0,0,-2.7843,-2.7841,-2.7868,-2.7868,-2.7866,-2.7854,-2.7861,-2.7853,-2.7848,-2.7876,-2.7846,-2.7862,-2.7884,-2.7884,-2.7888,-2.7959,-2.7935,-2.7964,-2.8008,-2.803,-2.8039,-2.8047,-2.8071,-2.808,-2.7969,-2.7969,-2.797,0,-2.7884,-2.7907,-2.7885,-2.7907,-2.7911,-2.7878,-2.7906,-2.7907,-2.7909,-2.7913,-2.7893,-2.7922,-2.7919,-2.7955,-2.7973,-2.7977,-2.7984,-2.7963,-2.804,-2.8047,-2.8054,-2.8077,-2.8086,-2.7973,-2.7972,-2.7972,-2.7972,0,-2.7957,-2.7974,-2.7997,-2.8,-2.8008,-2.8033,-2.8015,-2.8026,-2.801,-2.8001,-2.803,-2.8026,-2.8035,-2.8044,-2.8028,-2.8079,-2.8067,-2.8044,-2.8007,-2.8068,-2.8089,-2.8098,-2.7978,-2.7976,-2.7975,-2.7975,0,0,-2.8053,-2.8046,-2.8054,-2.8055,-2.8053,-2.8066,-2.8091,-2.81,-2.811,-2.8114,-2.8133,-2.8155,-2.8134,-2.8137,-2.8122,-2.8143,-2.8199,-2.8117,-2.8116,-2.813,-2.8253,-2.8269,-2.828,-2.8184,-2.8186,-2.8187,-2.8253,0,-2.8117,-2.8156,-2.8139,-2.8181,-2.8196,-2.8167,-2.8188,-2.819,-2.8182,-2.8195,-2.8188,-2.8203,-2.8175,-2.8177,-2.8196,-2.8188,-2.8223,-2.8183,-2.8201,-2.8202,-2.8199,-2.8291,-2.8307,-2.8369,-2.8261,-2.8263,-2.8264,0,-2.8195,-2.8202,-2.8246,-2.8241,-2.8247,-2.8267,-2.8275,-2.8288,-2.829,-2.8283,-2.8289,-2.827,-2.8295,-2.8261,-2.8294,-2.8268,-2.8275,-2.8273,-2.8275,-2.8273,-2.8234,-2.8289,-2.8388,-2.8396,-2.8277,-2.8276,-2.8275,0,-2.8258,-2.828,-2.8308,-2.8311,-2.8307,-2.8321,-2.8321,-2.832,-2.8328,-2.8336,-2.834,-2.8352,-2.8357,-2.8367,-2.8351,-2.8328,-2.8387,-2.8352,-2.8382,-2.8382,-2.8392,-2.8391,-2.8491,-2.8402,-2.8402,-2.8401,-2.8401,0,-2.8329,-2.8357,-2.8337,-2.8354,-2.8385,-2.8366,-2.8397,-2.8393,-2.8394,-2.841,-2.8387,-2.8403,-2.8384,-2.8398,-2.8387,-2.8416,-2.842,-2.8415,-2.8411,-2.8415,-2.8416,-2.8417,-2.8412,-2.8404,-2.8403,-2.8403,-2.8402,0,-2.8404,-2.8392,-2.8421,-2.8416,-2.8416,-2.8438,-2.8434,-2.845,-2.8443,-2.8465,-2.8469,-2.8457,-2.8474,-2.8461,-2.8477,-2.847,-2.8508,-2.8499,-2.8507,-2.8503,-2.8533,-2.853,-2.8635,-2.8648,-2.8553,-2.8554,-2.8555,0,-2.8448,-2.8469,-2.8466,-2.8476,-2.8477,-2.8493,-2.8501,-2.8484,-2.8493,-2.8498,-2.8514,-2.8529,-2.8539,-2.8567,-2.856,-2.8573,-2.8563,-2.86,-2.8565,-2.8569,-2.8562,-2.8559,-2.8561,-2.8605,-2.8607,-2.8608,-2.8608,0,-2.8528,-2.8522,-2.8534,-2.8545,-2.8555,-2.8563,-2.8569,-2.8578,-2.8562,-2.8574,-2.859,-2.8599,-2.8616,-2.8631,-2.8641,-2.8641,-2.8622,-2.862,-2.8627,-2.863,-2.8633,-2.863,-2.8523,-2.8617,-2.8616,-2.8615,-2.8615,-2.8614,-2.8587,-2.8605,-2.8606,-2.8621,-2.8624,-2.8631,-2.8646,-2.8641,-2.8655,-2.8667,-2.8658,-2.8678,-2.8681,-2.8693,-2.8696,-2.8712,-2.8697,-2.8707,-2.871,-2.8712,-2.8716,-2.8633,-2.8714,-2.8714,-2.8713,-2.8713,-2.8713,0,-2.8665,-2.8665,-2.8679,-2.8688,-2.87,-2.8683,-2.869,-2.8701,-2.8718,-2.8723,-2.8735,-2.8754,-2.8769,-2.8765,-2.8779,-2.8792,-2.8784,-2.8796,-2.8794,-2.8794,-2.8729,-2.872,-2.8803,-2.8803,-2.8803,-2.8803,-2.8803,-2.8803,-2.8706,-2.8734,-2.8728,-2.8758,-2.8758,-2.8778,-2.8783,-2.8789,-2.8793,-2.8816,-2.8828,-2.8826,-2.8827,-2.8841,-2.8855,-2.8853,-2.8858,-2.8873,-2.8869,-2.8807,-2.8798,-2.879,-2.8781,-2.8875,-2.8875,-2.8932,-2.8932,-2.8933]},{"header":{"parameterUnit":"m.s-1","parameterCategory":1,"la1":30.2991,"la2":30.254,"lo1":-89.0895,"lo2":-89.0444,"dy":0.0017,"dx":0.0017,"nx":28,"ny":28,"refTime":"2024-05-22T09:00:00:Z","depth":0,"parameterNumber":3,"parameterNumberName":"V-component_of_WINDS"},"data":[0,0,0,0,0,0,0,0,0,0,0,0,0,0,0,0,0,0,0,0,0,0,0,0,0,0,0,0,0,0,0,0,0,0,0,0,0,0,0,0,0,0,0,0,0,0,0,0,0,0,0,0,0,0,0,0,0,0,4.7509,4.751,0,4.759,4.7591,4.7592,4.7603,4.7602,4.7602,4.7601,4.7681,4.7684,4.7687,0,0,0,0,0,0,0,0,0,0,0,0,0,4.7362,4.7364,4.7509,4.751,4.7511,4.759,4.7591,4.7592,4.7603,4.7602,4.7601,4.7601,4.768,4.7684,4.7687,0,0,0,0,0,0,0,0,0,0,0,0,0,4.7432,4.7365,4.7509,4.7526,4.7528,4.7589,4.7591,4.7592,4.7603,4.7602,4.7601,4.76,4.7679,4.7683,4.7688,4.7736,0,0,4.7701,4.7702,0,0,0,0,0,0,0,0,4.7428,4.7438,4.7522,4.7525,4.7528,4.7585,4.7568,4.764,4.7604,4.7575,4.7601,4.76,4.765,4.7657,4.7674,4.774,4.7743,4.7701,4.7704,4.7705,4.7707,0,0,0,0,0,0,0,4.7423,4.7434,4.7541,4.7524,4.7527,4.7529,4.7538,4.7582,4.7618,4.7577,4.7578,4.7588,4.7651,4.767,4.7676,4.7745,4.7701,4.7705,4.7707,4.7709,4.7854,4.7855,0,0,0,0,0,0,4.7416,4.743,4.7538,4.7543,4.7474,4.7533,4.7542,4.7568,4.7617,4.7624,4.7589,4.7588,4.7663,4.7671,4.7679,4.7739,4.7705,4.7709,4.7712,4.7853,4.7854,4.7855,0,0,0,0,0,0,4.7412,4.7425,4.7535,4.7487,4.7501,4.7536,4.7565,4.757,4.7589,4.7626,4.7632,4.7602,4.7663,4.7673,4.7722,4.7742,4.7711,4.7715,4.7851,4.7853,4.7855,4.786,0,0,0,0,0,0,4.7408,4.7424,4.7443,4.7487,4.7504,4.7577,4.7566,4.7572,4.7597,4.7596,4.764,4.7646,4.7663,4.7716,4.7726,4.7747,4.7718,4.7849,4.7852,4.7854,4.7858,4.7862,4.7865,0,0,0,0,0,4.7403,4.7441,4.7444,4.7457,4.7529,4.7579,4.7588,4.7607,4.7598,4.7618,4.7641,4.7644,4.7738,4.7721,4.7733,4.7755,4.7848,4.7851,4.7854,4.7857,4.7861,4.7865,0,0,0,0,0,0,4.7398,4.7447,4.7451,4.7505,4.7538,4.758,4.7606,4.7611,4.7647,4.7645,4.7667,4.7677,4.7725,4.7745,4.7724,4.7805,4.7792,4.7798,4.779,4.7795,4.7798,4.7792,4.7722,0,0,0,0,0,4.7403,4.744,4.7481,4.7524,4.7541,4.757,4.7593,4.7605,4.7639,4.7653,4.768,4.7712,4.7749,4.7773,4.7809,4.7861,4.787,4.7882,4.7886,4.7888,4.7893,4.7922,4.7928,4.7865,4.7865,4.7865,0,0,4.7414,4.7446,4.7468,4.7524,4.7551,4.7588,4.7582,4.7621,4.7649,4.7658,4.7707,4.7728,4.7765,4.7816,4.784,4.7834,4.7912,4.7892,4.7894,4.7897,4.7926,4.7931,4.7937,4.7867,4.7867,4.7866,0,0,4.7453,4.7481,4.752,4.7547,4.7588,4.7607,4.7617,4.7659,4.7673,4.7722,4.773,4.7763,4.7826,4.7852,4.7874,4.7923,4.7927,4.7934,4.7952,4.798,4.7985,4.7989,4.8007,4.8013,4.7938,4.7938,4.7938,0,4.7462,4.7519,4.754,4.7579,4.7604,4.7615,4.7654,4.7679,4.7729,4.7745,4.7739,4.7818,4.7844,4.7901,4.7913,4.793,4.7941,4.7929,4.7982,4.7987,4.7991,4.8008,4.8015,4.7939,4.7939,4.7939,4.7938,0,4.7527,4.7567,4.7593,4.7642,4.767,4.7709,4.7735,4.776,4.7769,4.7789,4.7839,4.787,4.7913,4.7927,4.7936,4.7985,4.7981,4.7978,4.7966,4.7998,4.8014,4.8021,4.7939,4.7939,4.7939,4.7939,0,0,4.7566,4.7626,4.7636,4.7658,4.7703,4.7734,4.7773,4.7815,4.7836,4.787,4.7903,4.7956,4.7954,4.7979,4.7991,4.8016,4.8052,4.801,4.8011,4.8017,4.8108,4.811,4.8117,4.8055,4.8056,4.8057,4.8105,0,4.7611,4.7683,4.7702,4.7763,4.7799,4.781,4.7844,4.7875,4.7894,4.7927,4.7948,4.7986,4.798,4.7995,4.8019,4.8043,4.8071,4.8039,4.8086,4.8087,4.8077,4.8126,4.8128,4.8172,4.8111,4.8112,4.8113,0,4.7673,4.7709,4.7773,4.7814,4.783,4.786,4.7901,4.7932,4.7967,4.798,4.8007,4.8017,4.8058,4.8043,4.81,4.8078,4.8098,4.8112,4.8114,4.8119,4.8102,4.8133,4.8186,4.8192,4.8123,4.8123,4.8122,0,4.7695,4.776,4.7806,4.7825,4.7873,4.7895,4.7916,4.795,4.7974,4.8009,4.8024,4.8063,4.8084,4.8114,4.8134,4.8121,4.8188,4.8175,4.8199,4.8199,4.8213,4.8212,4.827,4.8225,4.8225,4.8225,4.8225,0,4.7744,4.7782,4.7817,4.7846,4.7889,4.7911,4.7953,4.7974,4.8004,4.8037,4.8048,4.8078,4.8103,4.8136,4.8152,4.8196,4.8205,4.8216,4.822,4.8215,4.8214,4.8229,4.8227,4.8227,4.8226,4.8226,4.8226,0,4.7776,4.7801,4.7852,4.7894,4.7905,4.7936,4.7971,4.7999,4.8019,4.806,4.807,4.8101,4.8141,4.8164,4.8213,4.8224,4.8273,4.8275,4.8261,4.8263,4.8286,4.8284,4.8356,4.8367,4.8314,4.8315,4.8315,0,4.7806,4.7836,4.7881,4.7904,4.7925,4.7962,4.7987,4.8009,4.8034,4.8076,4.8099,4.8139,4.8173,4.8236,4.8262,4.83,4.8303,4.8326,4.8309,4.8303,4.8304,4.8302,4.8305,4.8329,4.833,4.833,4.833,0,4.7855,4.7866,4.7902,4.7942,4.7971,4.8003,4.8035,4.8053,4.808,4.8108,4.8149,4.8175,4.8226,4.8266,4.8306,4.8327,4.8333,4.8335,4.8343,4.8339,4.833,4.8335,4.827,4.8334,4.8333,4.8333,4.8333,4.8333,4.7888,4.7915,4.7951,4.799,4.8017,4.8046,4.8075,4.8098,4.8133,4.8177,4.8187,4.823,4.8264,4.8319,4.834,4.8374,4.837,4.8381,4.8384,4.8386,4.8387,4.8324,4.8381,4.8381,4.8381,4.8381,4.8381,0,4.7938,4.7962,4.7998,4.8042,4.8073,4.8076,4.8112,4.8137,4.8175,4.8207,4.824,4.8287,4.8325,4.8355,4.8394,4.8415,4.8419,4.8425,4.8424,4.8428,4.8388,4.8378,4.8421,4.8421,4.8421,4.8421,4.8421,4.8421,4.7968,4.8015,4.8029,4.8089,4.8112,4.8155,4.8175,4.8202,4.8227,4.8279,4.8312,4.8331,4.8361,4.8403,4.8438,4.8446,4.846,4.8465,4.8473,4.8435,4.8431,4.8427,4.8418,4.8468,4.8468,4.8511,4.8511,4.8511]}]]